Location: Unspecified
(38.9820°N, 94.4650°W)
Time: 02:32:02
(UTC-05:00)

CZ-3 Stage 3 - Visible Passes

Search period start: 01 September 2014 00:00
Search period end: 11 September 2014 00:00
Orbit: 411 x 34838 km, 30.7° (Epoch: 30 August)

Date Brightness Start Highest point End Pass type
(mag) Time Alt. Az. Time Alt. Az. Time Alt. Az.
01 Sep 9.0 01:24:25 10° SE 04:10:32 24° SE 04:57:35 10° ESE visible
03 Sep 7.7 01:04:50 10° S 08:25:52 50° SSE 08:41:34 10° E visible
04 Sep 8.9 01:06:53 10° SE 04:09:48 26° SE 04:57:06 10° E visible
06 Sep 7.6 00:56:14 10° S 08:24:25 51° SSE 08:39:29 10° E visible
07 Sep 8.8 00:49:45 10° SE 04:08:58 28° SE 04:56:16 10° E visible
09 Sep 7.5 00:48:15 10° S 08:22:50 53° SSE 08:37:17 10° E visible
10 Sep 8.8 00:32:58 10° SE 04:08:01 30° SE 04:55:07 10° E visible
